Hourly Weather Roundup
Issued by NWS Central Illinois

Home | Current Version | Previous Version | Text Only | Print | Product List | Glossary On
Versions: 1 2 3 4 5 6 7 8 9 10 11 12 13 14 15 16 17 18 19 20 21 22 23 24 25 26 27 28 29 30 31 32 33 34 35 36 37 38 39 40 41 42 43 44 45 46 47 48 49 50
000
NZUS43 KILX 010710
HWRILX

AREA WEATHER ROUNDUP
NATIONAL WEATHER SERVICE, LINCOLN IL
200 AM CDT FRI AUG 01 2014


CITY           SKY/WX    TMP DP  RH WIND       PRES   REMARKS
BLOOMINGTON    PTCLDY    61  56  83 S5        30.09S
CHAMPAIGN      CLEAR     63  61  93 CALM      30.08S
DECATUR        PTCLDY    61  57  87 CALM      30.07F
FLORA          CLEAR     60  59  97 CALM      30.07F
GALESBURG      CLOUDY    63  61  94 CALM      30.07S
JACKSONVILLE   CLEAR     62  60  91 CALM      30.08S
LACON          CLEAR     62  60  92 CALM      30.05S
LAWRENCEVILLE  CLEAR     63  62  97 CALM      30.07F FOG
LITCHFIELD     CLEAR     61  58  90 SE3       30.06F
$$


CITY           SKY/WX    TMP DP  RH WIND       PRES   REMARKS
LINCOLN        PTCLDY    64  61  91 CALM      30.05S
MACOMB         CLOUDY    63  61  94 CALM      30.08S
MATTOON        CLOUDY    65  61  87 S3        30.07S
MT CARMEL AP   CLEAR     63  61  94 CALM      30.07S
OLNEY-NOBLE AP CLEAR     61  59  94 CALM      30.07F FOG
PARIS          CLEAR     58  57  98 CALM      30.08S
PEORIA         MOCLDY    67  61  81 CALM      30.07R
PONTIAC        CLEAR     61  61 100 CALM      30.07S FOG
RANTOUL        PTCLDY    62  59  91 CALM      30.09S FOG
ROBINSON       CLEAR     60  59  97 CALM      30.08F FOG
SPRINGFIELD    PTCLDY    62  60  93 CALM      30.08R
TAYLORVILLE    CLEAR     61  59  94 SE5       30.07S
$$

...REGIONAL REPORTS...


CITY           SKY/WX    TMP DP  RH WIND       PRES   REMARKS
CHICAGO O`HARE CLEAR     66  57  72 W5        30.04S
KANKAKEE       CLEAR     63  60  88 CALM      30.07S
MOLINE         MOCLDY    66  61  84 CALM      30.05S
MOUNT VERNON   CLEAR     61  55  82 CALM      30.08S
PITTSFIELD     CLEAR     61  58  91 CALM      30.08S
QUINCY         CLEAR     64  60  87 CALM      30.06F
ROCKFORD       CLEAR     62  57  83 S3        30.07R
$$


CITY           SKY/WX    TMP DP  RH WIND       PRES   REMARKS
BURLINGTON     CLOUDY    67  65  93 CALM      30.06S
CEDAR RAPIDS   MOCLDY    62  60  93 CALM      30.05S
DES MOINES     PTCLDY    65  61  87 CALM      30.05F
KIRKSVILLE     CLOUDY    66  61  84 S3        30.07F
OTTUMWA        MOCLDY    64  60  87 CALM      30.06S
ST LOUIS       PTCLDY    72  62  71 S3        30.06F
$$


CITY           SKY/WX    TMP DP  RH WIND       PRES   REMARKS
TERRE HAUTE    CLEAR     60  58  92 CALM      30.07F
EVANSVILLE     CLEAR     66  62  87 CALM      30.07F
INDIANAPOLIS   CLEAR     67  61  81 CALM      30.08S
LAFAYETTE      CLEAR     60  59  96 CALM      30.07S
MADISON        CLEAR     62  58  86 CALM      30.03S
MILWAUKEE      PTCLDY    67  58  72 SW6       30.02S
$$




USA.gov is the U.S. government's official web portal to all federal, state and local government web resources and services.